Change the Weather History Date:

Thursday, June 28, 2012

  Actual Average Record
Temperature  
Mean Temperature 88 °F 74 °F  
Max Temperature 96 °F 84 °F 100 °F (1988)
Min Temperature 79 °F 64 °F 53 °F (1968)
Degree Days  
Heating Degree Days 0 0  
Month to date heating degree days 10 16  
Since 1 June heating degree days 10 16  
Since 1 July heating degree days 4829 6076  
Cooling Degree Days 23 9  
Month to date cooling degree days 235 175  
Year to date cooling degree days 392 229  
Since 1 June cooling degree days 235 175  
Growing Degree Days 38 (Base 50)    
Moisture  
Dew Point 72 °F    
Average Humidity 66    
Maximum Humidity 80    
Minimum Humidity 51    
Precipitation  
Precipitation 0.00 in 0.14 in 1.46 in (1969)
Month to date precipitation 2.60 4.72  
Year to date precipitation 15.82  
Sea Level Pressure  
Sea Level Pressure 29.85 in    
Wind  
Wind Speed 9 mph (WSW)    
Max Wind Speed 20 mph    
Max Gust Speed 25 mph    
Visibility 10 miles    
Events      
T = Trace of Precipitation, MM = Missing Value Source: NWS Daily Summary

Daily Weather History Graph

Daily Weather History Graph

Search for Another Location

Airport or City:

Trip Planner

Search our weather history database for the weather conditions in past years. The results will help you decide how hot, cold, wet, or windy it might be!

Date:

Astronomy

Jun. 28, 2012 Rise Set
Actual Time 5:47 AM CDT 8:50 PM CDT
Civil Twilight 5:14 AM CDT 9:23 PM CDT
Nautical Twilight 4:31 AM CDT 10:06 PM CDT
Astronomical Twilight 3:41 AM CDT 10:55 PM CDT
Moon 3:25 PM CDT (6/28) 1:21 AM CDT (6/28)
Length of Visible Light 16h 09m
Length of Day
15h 03m
Waxing Gibbous, 67% of the Moon is Illuminated
Jun 28
Waxing Gibbous
Jul 3
Full
Jul 10
Last Quarter
Jul 18
New
Jul 26
First Quarter

Hourly Weather History & Observations

Time (CDT) Temp. Heat Index Dew Point Humidity Pressure Visibility Wind Dir Wind Speed Gust Speed Precip Events Conditions
12:53 AM 81.0 °F 84.1 °F 69.1 °F 67% 29.79 in 10.0 mi SSW 12.7 mph - N/A   Clear
1:53 AM 81.0 °F 84.1 °F 69.1 °F 67% 29.79 in 10.0 mi SSW 13.8 mph - N/A   Clear
2:53 AM 82.0 °F 84.9 °F 68.0 °F 62% 29.79 in 10.0 mi SW 15.0 mph - N/A   Clear
3:53 AM 81.0 °F 83.8 °F 68.0 °F 65% 29.80 in 10.0 mi SW 12.7 mph - N/A   Clear
4:53 AM 80.1 °F 82.7 °F 68.0 °F 67% 29.81 in 10.0 mi SW 13.8 mph - N/A   Clear
5:53 AM 79.0 °F - 68.0 °F 69% 29.83 in 10.0 mi SW 15.0 mph - N/A   Clear
6:53 AM 80.1 °F 82.7 °F 68.0 °F 67% 29.84 in 10.0 mi WSW 15.0 mph 23.0 mph N/A   Clear
7:53 AM 82.0 °F 84.9 °F 68.0 °F 62% 29.85 in 10.0 mi WSW 15.0 mph - N/A   Clear
8:53 AM 84.9 °F 88.8 °F 69.1 °F 59% 29.85 in 10.0 mi SW 15.0 mph 25.3 mph N/A   Clear
9:53 AM 87.1 °F 92.0 °F 70.0 °F 57% 29.86 in 10.0 mi West 13.8 mph 21.9 mph N/A   Clear
10:53 AM 89.1 °F 95.0 °F 71.1 °F 55% 29.88 in 10.0 mi West 11.5 mph - N/A   Clear
11:53 AM 91.0 °F 99.3 °F 73.0 °F 55% 29.88 in 10.0 mi West 10.4 mph - N/A   Clear
12:53 PM 91.9 °F 101.3 °F 73.9 °F 55% 29.88 in 10.0 mi West 9.2 mph - N/A   Clear
1:53 PM 93.9 °F 104.0 °F 73.9 °F 52% 29.88 in 10.0 mi WNW 6.9 mph - N/A   Clear
2:53 PM 95.0 °F 106.7 °F 75.0 °F 52% 29.88 in 7.0 mi WNW 8.1 mph - N/A   Clear
3:53 PM 95.0 °F 106.7 °F 75.0 °F 52% 29.87 in 10.0 mi Calm Calm - N/A   Clear
4:53 PM 96.1 °F 108.6 °F 75.0 °F 51% 29.87 in 10.0 mi West 5.8 mph - N/A   Clear
5:53 PM 96.1 °F 109.4 °F 75.9 °F 52% 29.86 in 10.0 mi WNW 5.8 mph - N/A   Clear
6:53 PM 95.0 °F 108.2 °F 75.9 °F 54% 29.87 in 10.0 mi WNW 3.5 mph - N/A   Clear
7:53 PM 91.9 °F 107.3 °F 78.1 °F 64% 29.87 in 9.0 mi Calm Calm - N/A   Clear
8:53 PM 88.0 °F 98.5 °F 75.9 °F 67% 29.87 in 9.0 mi Calm Calm - N/A   Clear
9:53 PM 88.0 °F 96.5 °F 73.9 °F 63% 29.86 in 10.0 mi Calm Calm - 0.01 in   Clear
10:53 PM 84.9 °F 95.3 °F 77.0 °F 77% 29.85 in 10.0 mi South 8.1 mph - 0.01 in   Clear
11:53 PM 84.0 °F 93.7 °F 77.0 °F 79% 29.86 in 10.0 mi South 6.9 mph - N/A   Clear